Weather observations for the past three days for
Algona
Imperial (Metric)
Date Time (cdt) Wind (mph) Vis. (mi.) Weather Sky Cond. Temperature (ºF) Relative Humidity Wind Chill (°F) Heat Index (°F) Pressure Precipitation (in)
Air Dwpt 6 hour altimeter (in) sea level (mb) 1 hr 3 hr 6 hr
Max. Min.
18 19:15 S 23 G 31 10.00 Mostly Cloudy and Breezy BKN065 82.4 73.4 74% 88 29.73 0.0
18 18:55 S 26 G 38 10.00 A Few Clouds and Windy FEW095 84.2 73.4 70% 91 29.73 0.0
18 18:35 S 24 G 41 9.00 A Few Clouds and Breezy FEW095 84.2 73.4 70% 91 29.73 0.0
18 18:15 S 24 G 35 9.00 Fair and Breezy CLR 84.2 73.4 70% 91 29.72 0.0
18 17:55 S 23 G 35 10.00 Fair and Breezy CLR 86 75.2 70% 95 29.71 0.0
18 17:35 S 26 G 38 10.00 A Few Clouds and Windy FEW039 FEW049 86 75.2 70% 95 29.72 0.0
18 17:15 S 33 G 40 10.00 Partly Cloudy and Windy SCT041 86 75.2 70% 95 29.72 0.0
18 16:55 S 28 G 35 10.00 Partly Cloudy and Windy SCT044 86 75.2 70% 95 29.71 0.0
18 16:35 S 23 G 31 10.00 Partly Cloudy and Breezy SCT043 SCT070 84.2 75.2 74% 92 29.71 0.0
18 16:15 S 24 G 31 10.00 Partly Cloudy and Breezy FEW040 SCT046 SCT070 84.2 75.2 74% 92 29.72 0.0
18 15:55 S 26 G 35 10.00 Partly Cloudy and Windy SCT043 SCT050 84.2 75.2 74% 92 29.71 0.0
18 15:35 S 29 G 38 10.00 Mostly Cloudy and Windy FEW035 SCT043 BKN050 84.2 75.2 74% 92 29.71 0.0
18 15:15 S 22 G 35 10.00 Mostly Cloudy and Breezy SCT036 BKN042 82.4 75.2 79% 89 29.72 0.0
18 14:55 S 25 G 38 10.00 Mostly Cloudy and Breezy BKN036 82.4 75.2 79% 89 29.72 0.0
18 14:35 S 30 G 44 5.00 Mostly Cloudy with Haze and Windy BKN035 82.4 75.2 79% 89 29.72 0.0
18 14:15 S 29 G 40 6.00 Mostly Cloudy with Haze and Windy SCT032 BKN039 82.4 75.2 79% 89 29.71 0.0
18 13:55 S 32 G 41 10.00 Mostly Cloudy and Windy SCT033 BKN039 84.2 75.2 74% 92 29.7 0.0
18 13:35 S 33 G 39 10.00 Partly Cloudy and Windy SCT032 84.2 75.2 74% 92 29.7 0.0
18 13:15 S 30 G 39 9.00 Mostly Cloudy and Windy BKN032 80.6 73.4 79% 85 29.7 0.0
18 12:55 S 36 G 44 9.00 Mostly Cloudy and Windy BKN030 BKN037 80.6 73.4 79% 85 29.7 0.0
18 12:35 S 36 G 43 9.00 Mostly Cloudy and Windy BKN028 BKN033 82.4 75.2 79% 89 29.7 0.0
18 12:15 S 31 G 41 10.00 Partly Cloudy and Windy SCT027 SCT033 82.4 75.2 79% 89 29.69 0.0
18 11:55 S 31 G 39 10.00 Partly Cloudy and Windy SCT027 80.6 75.2 84% 86 29.69 0.0
18 11:35 S 29 G 41 10.00 A Few Clouds and Windy FEW025 FEW060 80.6 75.2 84% 86 29.69 0.0
18 11:15 S 28 G 38 10.00 A Few Clouds and Windy FEW060 80.6 75.2 84% 86 29.69 0.0
18 10:55 S 26 G 37 10.00 Mostly Cloudy and Windy BKN031 80.6 75.2 84% 86 29.69 0.0
18 10:35 S 26 G 32 10.00 Overcast and Windy BKN029 OVC033 78.8 73.4 84% 82 29.7 0.0
18 10:15 S 24 G 32 10.00 Overcast and Breezy BKN026 OVC031 78.8 73.4 84% 82 29.71 0.0
18 09:55 S 30 G 38 10.00 Overcast and Windy BKN024 OVC029 78.8 73.4 84% 82 29.7 0.0
18 09:35 S 25 G 36 10.00 Mostly Cloudy and Breezy BKN023 BKN029 78.8 75.2 89% 82 29.69 0.0
18 09:15 S 28 G 37 10.00 Mostly Cloudy and Windy BKN023 BKN030 78.8 73.4 84% 82 29.69 0.0
18 08:55 S 30 G 43 0.00 Mostly Cloudy and Windy BKN022 BKN029 78.8 73.4 84% 82 29.67 0.0
18 08:35 S 30 G 40 10.00 Partly Cloudy and Windy SCT022 78.8 73.4 84% 82 29.66 0.0
18 08:15 S 30 G 37 10.00 Partly Cloudy and Windy SCT020 78.8 73.4 84% 82 29.67 0.0
18 07:55 S 30 G 38 10.00 Partly Cloudy and Windy SCT021 77 73.4 89% 78 29.67 0.0
18 07:35 S 28 G 37 10.00 Partly Cloudy and Windy SCT022 77 73.4 89% 78 29.67 0.0
18 07:15 S 26 G 35 10.00 A Few Clouds and Windy FEW021 77 73.4 89% 78 29.67 0.0
18 06:55 S 24 G 32 10.00 Fair and Breezy CLR 77 73.4 89% 78 29.67 0.0
18 06:35 S 26 G 33 10.00 Fair and Windy CLR 75.2 73.4 94% 74 29.67 0.0
18 06:15 S 22 G 31 10.00 Fair and Breezy CLR 75.2 71.6 89% 75 29.67 0.0
18 05:55 S 24 G 31 10.00 Fair and Breezy CLR 75.2 71.6 89% 75 29.67 0.0
18 05:35 S 20 G 31 10.00 Fair CLR 75.2 71.6 89% 75 29.67 0.0
18 05:15 S 21 G 28 10.00 Fair and Breezy CLR 75.2 71.6 89% 75 29.67 0.0
18 04:55 S 18 G 28 10.00 Fair CLR 75.2 71.6 89% 75 29.66 0.0
18 04:35 S 20 G 29 10.00 Fair CLR 77 71.6 83% 78 29.65 0.0
18 04:15 S 23 G 31 10.00 Fair and Breezy CLR 77 71.6 83% 78 29.64 0.0
18 03:55 S 24 G 33 10.00 Fair and Breezy CLR 77 71.6 83% 78 29.63 0.0
18 03:35 S 25 10.00 Fair and Breezy CLR 77 71.6 83% 78 29.63 0.0
18 03:15 S 22 G 32 10.00 Fair and Breezy CLR 77 71.6 83% 78 29.63 0.0
18 02:55 S 21 G 29 10.00 Fair and Breezy CLR 75.2 71.6 89% 75 29.63 0.0
18 02:35 S 20 G 25 10.00 Fair CLR 75.2 71.6 89% 75 29.65 0.0
18 02:15 S 18 G 26 10.00 Fair CLR 75.2 71.6 89% 75 29.67 0.0
18 01:55 S 21 G 28 10.00 Fair and Breezy CLR 75.2 71.6 89% 75 29.68 0.0
18 01:15 SE 18 G 26 10.00 Fair CLR 77 69.8 79% 79 29.69 0.0
18 00:55 SE 17 10.00 Fair CLR 77 69.8 79% 79 29.7 0.0
18 00:35 SE 17 10.00 Fair CLR 77 69.8 79% 79 29.71 0.0
18 00:15 SE 17 10.00 Fair CLR 77 69.8 79% 79 29.72 0.0
17 23:55 SE 13 10.00 Fair CLR 77 69.8 79% 79 29.73 0.0
17 23:35 SE 13 0.00 Fair CLR 77 69.8 79% 79 29.72 0.0
17 23:15 SE 12 10.00 Fair CLR 77 69.8 79% 79 29.72 0.0
17 22:55 SE 13 10.00 Fair CLR 77 71.6 83% 78 29.72 0.0
17 22:35 SE 12 10.00 Fair CLR 77 71.6 83% 78 29.72 0.0
17 22:15 SE 12 10.00 Fair CLR 78.8 71.6 79% 82 29.72 0.0
17 21:55 SE 13 10.00 Fair CLR 78.8 71.6 79% 82 29.72 0.0
17 21:35 S 12 10.00 Fair CLR 78.8 71.6 79% 82 29.71 0.0
17 21:15 S 16 10.00 Fair CLR 80.6 71.6 74% 85 29.69 0.0
17 20:35 S 17 G 25 10.00 Fair CLR 82.4 71.6 70% 87 29.67 0.0
17 20:15 S 17 G 24 10.00 Fair CLR 82.4 71.6 70% 87 29.67 0.0
17 19:55 S 16 10.00 Fair CLR 82.4 73.4 74% 88 29.68 0.0
17 19:35 SE 14 10.00 Fair CLR 82.4 73.4 74% 88 29.69 0.0
17 19:15 SE 8 10.00 Fair CLR 82.4 78.8 89% 92 29.7 0.0
17 18:55 SE 9 10.00 Fair CLR 80.6 77 89% 87 29.71 0.0
17 18:35 E 8 10.00 Fair CLR 80.6 77 89% 87 29.72 0.0
17 18:15 E 6 10.00 Fair CLR 77 73.4 89% 78 29.72 0.0
17 17:55 SE 8 G 15 7.00 Fair CLR 73.4 71.6 94% 29.72 0.0 0.1
17 17:35 SE 13 G 25 9.00 Fair CLR 75.2 69.8 83% 75 29.74 0.0
17 17:15 E 7 4.00 Fair with Haze CLR 78.8 75.2 89% 82 29.75 0.0
17 16:55 NE 9 10.00 A Few Clouds FEW027 FEW039 82.4 75.2 79% 89 29.75 0.0
17 16:35 Calm 10.00 Mostly Cloudy SCT027 BKN037 80.6 73.4 79% 85 29.79 0.0
17 16:15 SW 5 10.00 Partly Cloudy FEW025 SCT031 80.6 73.4 79% 85 29.79 0.0
17 15:55 S 12 10.00 Partly Cloudy FEW026 SCT031 80.6 73.4 79% 85 29.76 0.0
17 15:35 S 13 10.00 A Few Clouds FEW026 80.6 75.2 84% 86 29.77 0.0
17 15:15 SE 12 10.00 Fair CLR 80.6 73.4 79% 85 29.76 0.0
17 14:55 SE 13 G 18 10.00 Fair CLR 78.8 73.4 84% 82 29.77 0.0
17 14:35 SE 14 G 20 10.00 Fair CLR 78.8 73.4 84% 82 29.77 0.0
17 14:15 SE 15 G 21 10.00 Fair CLR 78.8 73.4 84% 82 29.78 0.0
17 13:55 SE 12 G 18 10.00 Fair CLR 78.8 73.4 84% 82 29.79 0.0
17 13:35 E 16 G 25 10.00 Fair CLR 78.8 71.6 79% 82 29.79 0.0
17 13:15 SE 15 G 28 10.00 Fair CLR 77 71.6 83% 78 29.78 0.0
17 12:55 E 20 G 28 10.00 Fair CLR 75.2 71.6 89% 75 29.78 0.0
17 12:35 SE 17 G 25 10.00 Fair CLR 73.4 69.8 89% 29.8 0.0
17 12:15 SE 16 G 23 10.00 Fair CLR 71.6 69.8 94% 29.83 0.0
17 11:55 SE 16 10.00 Fair CLR 71.6 71.6 100% 29.83 0.0
17 11:35 SE 13 G 21 10.00 Fair CLR 68 68 100% 29.85 0.0
17 11:15 E 8 10.00 A Few Clouds FEW009 FEW015 66.2 66.2 100% 29.86 0.0
17 10:55 NE 7 G 15 10.00 A Few Clouds FEW009 FEW015 66.2 66.2 100% 29.87 0.0
17 10:35 E 12 10.00 Fair CLR 64.4 64.4 100% 29.85 0.0
17 10:15 E 12 10.00 Fair CLR 64.4 64.4 100% 29.83 0.0
17 09:55 NE 10 10.00 Fair CLR 62.6 62.6 100% 29.84 0.0 0.02
17 09:35 E 7 7.00 Partly Cloudy FEW038 FEW055 SCT070 60.8 60.8 100% 29.87 0.0
17 09:15 NE 8 9.00 Mostly Cloudy FEW034 FEW060 BKN070 60.8 60.8 100% 29.88 0.0
17 08:55 N 10 3.00 Fog/Mist FEW027 FEW033 SCT070 60.8 60.8 100% 29.88 0.0 0.06
17 08:35 NE 8 G 17 10.00 Partly Cloudy FEW006 FEW013 SCT080 60.8 60.8 100% 29.89 0.0
17 08:15 NE 10 8.00 Mostly Cloudy SCT006 SCT009 BKN013 60.8 60.8 100% 29.88 0.0
17 07:55 N 13 3.00 Fog/Mist FEW006 SCT033 BKN065 60.8 60.8 100% 29.86 0.0 0.13
17 07:35 N 14 3.00 Fog/Mist FEW026 BKN034 OVC065 60.8 60.8 100% 29.86 0.0
17 07:15 N 14 6.00 Fog/Mist SCT026 SCT037 OVC045 60.8 60.8 100% 29.85 0.0
17 06:55 NE 18 G 26 4.00 Fog/Mist FEW011 BKN039 OVC044 60.8 60.8 100% 29.83 0.0 0.03
17 06:35 NE 25 G 31 7.00 Overcast and Breezy FEW009 SCT013 OVC031 62.6 62.6 100% 29.81 0.0
17 06:15 NE 17 10.00 Overcast OVC033 62.6 62.6 100% 29.8 0.0
17 05:55 NE 18 G 29 10.00 Overcast BKN035 OVC041 62.6 62.6 100% 29.77 0.0 0.02
17 05:35 N 21 6.00 Fog/Mist and Breezy FEW008 OVC033 62.6 62.6 100% 29.79 0.0
17 05:15 N 15 9.00 Overcast BKN008 OVC030 62.6 62.6 100% 29.8 0.0
17 04:55 N 17 G 29 10.00 Overcast SCT009 BKN024 OVC028 64.4 64.4 100% 29.79 0.0
17 04:35 N 18 G 32 10.00 Overcast BKN021 BKN036 OVC070 66.2 64.4 94% 29.76 0.0
17 04:15 SW 12 G 18 10.00 Overcast SCT060 OVC075 78.8 75.2 89% 82 29.73 0.0
17 03:55 S 14 10.00 Partly Cloudy SCT070 78.8 75.2 89% 82 29.7 0.0
17 03:35 S 13 10.00 Mostly Cloudy SCT050 BKN075 77 75.2 94% 78 29.7 0.0
17 03:15 S 14 10.00 Mostly Cloudy BKN050 BKN060 BKN075 77 75.2 94% 78 29.71 0.0
17 02:55 S 12 10.00 Mostly Cloudy SCT047 BKN055 BKN070 77 75.2 94% 78 29.71 0.0
17 02:35 SE 8 10.00 Overcast BKN042 BKN048 OVC070 77 75.2 94% 78 29.71 0.0
17 02:15 SE 7 10.00 Mostly Cloudy SCT039 BKN049 BKN065 77 75.2 94% 78 29.71 0.0
17 01:55 SE 6 10.00 Mostly Cloudy SCT033 BKN039 BKN055 77 75.2 94% 78 29.73 0.0
17 01:35 S 6 10.00 Overcast BKN033 OVC039 78.8 75.2 89% 82 29.74 0.0
17 01:15 SE 5 10.00 Overcast BKN036 OVC060 77 75.2 94% 78 29.74 0.0
17 00:55 S 5 10.00 Overcast BKN050 OVC060 77 75.2 94% 78 29.74 0.0
17 00:35 S 6 10.00 Mostly Cloudy FEW037 BKN049 BKN060 77 75.2 94% 78 29.74 0.0
17 00:15 S 8 10.00 Overcast BKN036 BKN045 OVC060 78.8 75.2 89% 82 29.75 0.0
16 23:55 SW 8 10.00 Overcast BKN035 BKN042 OVC055 80.6 75.2 84% 86 29.76 0.0
16 23:35 SW 9 10.00 Overcast BKN032 OVC040 80.6 73.4 79% 85 29.77 0.0
16 23:15 SW 8 10.00 Mostly Cloudy BKN034 BKN042 BKN050 80.6 73.4 79% 85 29.77 0.0
16 22:55 SW 5 10.00 A Few Clouds FEW038 78.8 71.6 79% 82 29.76 0.0
16 22:35 E 5 10.00 Partly Cloudy SCT039 SCT047 SCT055 78.8 71.6 79% 82 29.76 0.0
16 22:15 SE 6 10.00 Overcast SCT040 BKN047 OVC060 78.8 73.4 84% 82 29.76 0.0
16 21:55 N 5 10.00 Mostly Cloudy BKN046 BKN060 82.4 71.6 70% 87 29.75 0.0
16 21:35 NW 7 G 14 10.00 Overcast BKN043 OVC050 82.4 71.6 70% 87 29.74 0.0
16 21:15 N 6 10.00 Overcast OVC043 84.2 71.6 66% 90 29.73 0.0
16 20:55 S 10 10.00 Mostly Cloudy BKN045 BKN060 84.2 75.2 74% 92 29.72 0.0
16 20:35 S 12 10.00 Mostly Cloudy BKN046 BKN060 84.2 75.2 74% 92 29.71 0.0
16 20:15 SW 9 10.00 Mostly Cloudy BKN047 BKN060 86 73.4 66% 93 29.71 0.0
16 19:55 SW 12 10.00 Partly Cloudy SCT050 SCT055 86 73.4 66% 93 29.7 0.0
16 19:35 SW 12 G 17 10.00 Partly Cloudy FEW049 SCT055 86 73.4 66% 93 29.69 0.0
16 19:15 SW 15 G 22 10.00 Partly Cloudy FEW050 SCT055 87.8 73.4 62% 96 29.68 0.0
16 18:55 SW 17 10.00 A Few Clouds FEW050 FEW055 87.8 73.4 62% 96 29.67 0.0
16 18:35 S 18 10.00 A Few Clouds FEW050 87.8 73.4 62% 96 29.67 0.0
16 18:15 S 21 10.00 A Few Clouds and Breezy FEW049 89.6 73.4 59% 98 29.66 0.0
16 17:55 S 18 10.00 A Few Clouds FEW048 89.6 73.4 59% 98 29.66 0.0
16 17:35 SW 22 10.00 A Few Clouds and Breezy FEW047 89.6 73.4 59% 98 29.66 0.0
16 17:15 S 22 10.00 Fair and Breezy CLR 89.6 73.4 59% 98 29.65 0.0
16 16:55 SW 17 G 25 10.00 Fair CLR 89.6 73.4 59% 98 29.65 0.0
16 16:35 SW 18 G 28 10.00 Fair CLR 89.6 73.4 59% 98 29.65 0.0
16 16:15 SW 20 G 29 10.00 Fair CLR 89.6 73.4 59% 98 29.65 0.0
16 15:55 S 22 10.00 Fair and Breezy CLR 89.6 73.4 59% 98 29.65 0.0
16 15:35 SW 20 G 26 10.00 Fair CLR 89.6 73.4 59% 98 29.66 0.0
16 15:15 SW 17 G 25 10.00 A Few Clouds FEW043 89.6 73.4 59% 98 29.66 0.0
16 14:55 SW 18 G 26 10.00 A Few Clouds FEW043 89.6 73.4 59% 98 29.66 0.0
16 14:35 SW 21 G 30 10.00 A Few Clouds and Breezy FEW043 89.6 73.4 59% 98 29.66 0.0
16 14:15 S 24 10.00 A Few Clouds and Breezy FEW043 87.8 73.4 62% 96 29.66 0.0
16 13:55 SW 18 G 28 10.00 A Few Clouds FEW042 87.8 73.4 62% 96 29.67 0.0
16 13:35 SW 20 G 28 10.00 Fair CLR 87.8 71.6 59% 94 29.68 0.0
16 13:15 SW 17 G 30 10.00 Fair CLR 86 71.6 62% 92 29.68 0.0
16 12:55 SW 17 G 31 10.00 Fair CLR 86 71.6 62% 92 29.68 0.0
16 12:35 SW 23 G 30 10.00 Fair and Breezy CLR 86 71.6 62% 92 29.68 0.0
16 12:15 SW 25 G 32 10.00 Fair and Breezy CLR 84.2 69.8 62% 88 29.68 0.0
16 11:55 SW 24 G 31 10.00 Fair and Breezy CLR 84.2 69.8 62% 88 29.68 0.0
16 11:35 SW 26 G 37 10.00 Fair and Windy CLR 84.2 69.8 62% 88 29.68 0.0
16 11:15 SW 23 G 36 10.00 Fair and Breezy CLR 84.2 69.8 62% 88 29.68 0.0
16 10:55 SW 24 G 35 0.00 Fair and Breezy CLR 82.4 69.8 66% 86 29.68 0.0
16 10:35 SW 24 G 32 10.00 Fair and Breezy CLR 82.4 69.8 66% 86 29.68 0.0
16 10:15 SW 23 G 29 10.00 Fair and Breezy CLR 80.6 69.8 70% 84 29.69 0.0
16 09:55 SW 20 G 28 10.00 Fair CLR 78.8 69.8 74% 81 29.69 0.0
16 09:35 S 21 10.00 Fair and Breezy CLR 77 69.8 79% 79 29.69 0.0
16 09:15 S 21 G 28 10.00 Fair and Breezy CLR 77 69.8 79% 79 29.7 0.0
16 08:55 S 21 G 29 10.00 Fair and Breezy CLR 75.2 69.8 83% 75 29.69 0.0
16 08:35 S 18 G 28 10.00 Fair CLR 75.2 69.8 83% 75 29.69 0.0
16 08:15 S 23 10.00 Fair and Breezy CLR 75.2 69.8 83% 75 29.68 0.0
16 07:55 S 22 10.00 Fair and Breezy CLR 73.4 69.8 89% 29.68 0.0
16 07:35 S 22 G 29 10.00 Fair and Breezy CLR 73.4 69.8 89% 29.67 0.0
16 07:15 S 23 G 30 10.00 Fair and Breezy CLR 73.4 69.8 89% 29.67 0.0
16 06:55 S 20 G 26 10.00 Fair CLR 73.4 69.8 89% 29.68 0.0
16 06:35 S 18 10.00 Fair CLR 71.6 69.8 94% 29.68 0.0
16 06:15 S 15 10.00 Fair CLR 71.6 69.8 94% 29.68 0.0
16 05:55 S 14 10.00 Fair CLR 69.8 69.8 100% 29.67 0.0
16 05:35 S 13 10.00 Fair CLR 69.8 69.8 100% 29.67 0.0
16 05:15 S 16 10.00 Fair CLR 68 68 100% 29.66 0.0
16 04:55 S 14 10.00 A Few Clouds FEW085 68 68 100% 29.67 0.0
16 04:35 S 18 10.00 Mostly Cloudy SCT070 BKN085 68 68 100% 29.67 0.0
16 04:15 S 17 G 23 10.00 Partly Cloudy SCT075 SCT085 68 68 100% 29.69 0.0
16 03:55 S 17 G 25 10.00 Mostly Cloudy BKN070 BKN085 68 68 100% 29.69 0.0
16 03:35 S 20 G 26 10.00 Overcast BKN075 OVC090 68 68 100% 29.69 0.0
16 03:15 S 20 G 26 10.00 Partly Cloudy FEW075 SCT090 SCT110 68 66.2 94% 29.69 0.0
16 02:55 S 22 G 29 10.00 Partly Cloudy and Breezy FEW027 SCT040 SCT050 68 66.2 94% 29.69 0.0 0.04
16 02:35 S 23 4.00 Fog/Mist and Breezy BKN027 BKN038 OVC050 68 68 100% 29.69 0.0
16 02:15 S 13 4.00 Fog/Mist SCT025 BKN037 OVC060 68 68 100% 29.7 0.0
16 01:55 S 9 4.00 Fog/Mist SCT033 BKN055 OVC080 68 68 100% 29.73 0.0 0.03
16 01:35 S 12 10.00 Overcast FEW050 SCT065 OVC080 68 66.2 94% 29.72 0.0
16 01:15 S 14 G 21 0.00 Mostly Cloudy BKN080 BKN120 69.8 66.2 88% 29.73 0.0
16 00:55 S 20 10.00 Mostly Cloudy BKN120 69.8 68 94% 29.71 0.0
16 00:35 S 17 G 23 10.00 Fair CLR 71.6 68 88% 29.72 0.0
16 00:15 S 20 10.00 Fair CLR 71.6 68 88% 29.73 0.0
15 23:55 S 20 G 32 10.00 Partly Cloudy FEW029 SCT035 SCT042 73.4 68 83% 29.74 0.0
15 23:35 S 18 G 30 10.00 Mostly Cloudy SCT030 BKN036 BKN110 75.2 69.8 83% 75 29.74 0.0
15 23:15 S 25 G 31 10.00 Partly Cloudy and Breezy SCT080 SCT090 SCT110 75.2 68 78% 76 29.72 0.0
15 22:55 S 26 G 33 10.00 Mostly Cloudy and Windy FEW036 BKN080 BKN085 77 68 74% 79 29.7 0.0
15 22:35 S 23 G 32 10.00 Mostly Cloudy and Breezy BKN036 BKN070 77 68 74% 79 29.71 0.0
15 22:15 S 22 G 30 10.00 Overcast and Breezy BKN070 BKN085 OVC100 77 68 74% 79 29.7 0.0
15 21:55 S 21 G 31 10.00 Mostly Cloudy and Breezy BKN070 BKN085 BKN110 75.2 69.8 83% 75 29.7 0.0
15 21:35 S 20 G 29 10.00 Partly Cloudy FEW070 SCT110 75.2 69.8 83% 75 29.7 0.0
15 21:15 S 24 10.00 Partly Cloudy and Breezy FEW065 FEW080 SCT110 75.2 69.8 83% 75 29.7 0.0
15 20:55 S 16 G 22 10.00 Overcast OVC110 73.4 69.8 89% 29.71 0.0
15 20:35 SE 13 10.00 Mostly Cloudy FEW070 BKN100 73.4 68 83% 29.73 0.0
15 20:15 SE 9 10.00 Partly Cloudy FEW075 SCT110 71.6 68 88% 29.73 0.0
15 19:55 SE 10 10.00 Mostly Cloudy SCT075 BKN085 BKN110 71.6 68 88% 29.74 0.0 0.13
15 19:35 SE 8 10.00 Mostly Cloudy BKN070 BKN085 71.6 68 88% 29.75 0.0
Date Time (cdt) Wind (mph) Vis. (mi.) Weather Sky Cond. Air Dwpt Max. Min. Relative Humidity Wind Chill (°F) Heat Index (°F) altimeter (in) sea level (mb) 1 hr 3 hr 6 hr
6 hour
Temperature (ºF) Pressure Precipitation (in)